Regional Weather Roundup
Issued by NWS

Home | Current Version | Previous Version | Graphics & Text | Print | Product List | Glossary Off
Versions: 1 2 3 4 5 6 7 8 9 10 11 12 13 14 15 16 17 18 19 20 21 22 23 24 25 26 27 28 29 30 31 32 33 34 35 36 37 38 39 40 41 42 43 44 45 46 47 48 49 50

000
ASUS43 KMKX 240721
RWRWI

WISCONSIN REGIONAL WEATHER ROUNDUP
NATIONAL WEATHER SERVICE MILWAUKEE/SULLIVAN WI
100 AM CST FRI FEB 24 2017

NOTE: "FAIR" INDICATES FEW OR NO CLOUDS BELOW 12,000 FEET WITH NO
SIGNIFICANT WEATHER AND/OR OBSTRUCTIONS TO VISIBILITY.

WIZ001-002-006>008-014>016-023>028-240800-
NORTHWEST WISCONSIN

CITY           SKY/WX    TMP DP  RH WIND       PRES   REMARKS
SUPERIOR ARPT  CLOUDY    24  15  67 N13G18    29.98F WCI  13
ASHLAND        CLOUDY    27  19  72 N9        29.95F WCI  18
HAYWARD        CLOUDY    27  17  66 N10       29.91F WCI  17
SIREN          CLOUDY    26  18  69 NE10      29.94S WCI  17
CUMBERLAND     CLOUDY    28  19  69 N10       29.89R WCI  19
RICE LAKE      CLOUDY    29  22  75 N13       29.91R WCI  19
CHETEK         CLOUDY    30  22  73 NE7       29.90R WCI  23
LADYSMITH      CLOUDY    30  24  78 NE12G17   29.90R WCI  20
EAU CLAIRE     HVY SNOW  29  28  96 NE10      29.84F VSB 1/4 WCI  20
MENOMONIE      LGT SNOW  31  25  79 N14       29.86S WCI  21
NEW RICHMOND   CLOUDY    29  22  74 NE16      29.88F WCI  17
OSCEOLA        CLOUDY    29  21  71 N15G22    29.93F WCI  18
$$

WIZ003>005-009-010-017-018-240800-
NORTH CENTRAL WISCONSIN

CITY           SKY/WX    TMP DP  RH WIND       PRES   REMARKS
MANITOWISH WTR CLOUDY    25  25  99 N9        29.85F WCI  15
ARBOR VITAE    CLOUDY    28  25  90 NE5         N/A  WCI  23
WOODRUFF       CLOUDY    28  25  90 NE5         N/A  WCI  23
RHINELANDER    CLOUDY    28  22  78 NE12G18   29.86F WCI  18
EAGLE RIVER    CLOUDY    26  22  84 NE6       29.84F WCI  20
LAND O LAKES   CLOUDY    25  24  94 N6        29.88F WCI  18
PHILLIPS       CLOUDY    27  24  87 NE5       29.86F WCI  22
TOMAHAWK       CLOUDY    28  20  72 NE6       29.87R WCI  22
MEDFORD        SNOW      27  25  91 NE14      29.84S VSB 1/2 WCI  15
MERRILL        NOT AVBL
$$

WIZ029-030-035-036-043>047-240800-
CENTRAL WISCONSIN

CITY           SKY/WX    TMP DP  RH WIND       PRES   REMARKS
WAUSAU         LGT SNOW  30  28  92 N5        29.81F VSB 3/4 WCI  25
MOSINEE        LGT SNOW  30  30 100 NE15      29.82F WCI  19
MARSHFIELD     SNOW      30  29  96 N8        29.78F VSB 1/2 WCI  22
STEVENS POINT  LGT SNOW  29  28  97 NE18G24   29.80S VSB 3/4 WCI  16
WAUPACA        SNOW      32  30  90 NE10      29.78F VSB 1/2 WCI  24
WAUTOMA        LGT SNOW  31  29  92 NE22G28   29.73F FOG     WCI  18
WISC RAPIDS    LGT SNOW  31  30  96 NE12G21   29.79R VSB 1   WCI  22
CAMP DOUGLAS   LGT SNOW  32  32 100 NE9       29.79R FOG     WCI  24
$$

WIZ011>013-019>022-031-037>040-048>050-240800-
NORTHEAST WISCONSIN

CITY           SKY/WX    TMP DP  RH WIND       PRES   REMARKS
ANTIGO         FLURRIES  29  25  84 NE12      29.84S WCI  20
SHAWANO        FLURRIES  33  27  79 NE13      29.83F WCI  24
OCONTO         CLOUDY    32  23  69 NE12G18   29.88R WCI  23
STURGEON BAY   LGT RAIN  33  24  69 NE15      29.85F WCI  23
GREEN BAY      SNOW      31  31 100 NE22G28   29.81F VSB 1/2 WCI  18
MANITOWOC      SNOW      33  31  92 NE16G23   29.81F VSB 1/2 WCI  23
APPLETON       LGT SNOW  32  30  93 NE15G23   29.75F VSB 3/4 WCI  22
CLINTONVILLE   LGT SNOW  32  27  80 E16G25    29.81F WCI  21
OSHKOSH        LGT SNOW  32  29  88 NE14G23   29.76S FOG     WCI  22
$$

WIZ032>034-041-042-053>061-240800-
SOUTHWEST WISCONSIN

CITY           SKY/WX    TMP DP  RH WIND       PRES   REMARKS
LA CROSSE      LGT SNOW  35  32  88 N14       29.74F FOG     WCI  26
SPARTA         LGT SNOW  32  32 100 NE13      29.79R WCI  22
VIROQUA        CLOUDY    32  32 100 NE20      29.70F WCI  21
BOSCOBEL       LGT RAIN  35  32  88 NE10G21   29.70R WCI  27
PRAIRIE DU CHI MIX PCPN  33  32  96 NE12G17   29.66F WCI  24
PLATTEVILLE    CLOUDY    34  34 100 NE20G32   29.62F WCI  22
$$

WIZ056-057-062-063-064-067-068-240800-
SOUTH CENTRAL WISCONSIN

CITY           SKY/WX    TMP DP  RH WIND       PRES   REMARKS
REEDSBURG      CLOUDY    32  31  98 NE15G21   29.72R WCI  21
BARABOO/DELLS  CLOUDY    32  31  95 NE14G35   29.72R WCI  22
LONE ROCK      LGT RAIN  34  30  85 NE12G28   29.70R FOG     WCI  25
MINERAL POINT  LGT RAIN  34  34 100 NE21G30   29.61F WCI  22
MADISON        RAIN      33  31  92 E20G25    29.67F FOG     WCI  21
MIDDLETON      CLOUDY    34  34 100 E17G24    29.66F WCI  23
WATERTOWN      CLOUDY    33  33 100 NE17G25   29.66F WCI  22
MONROE         TSTM      32  32 100 NE21G28   29.62R WCI  20
JANESVILLE     LGT RAIN  36  36 100 N8G23     29.65R WCI  29
$$

WIZ051-052-058>065-066-070>072-240800-
SOUTHEAST WISCONSIN

CITY           SKY/WX    TMP DP  RH WIND       PRES   REMARKS
MILWAUKEE      LGT RAIN  36  33  89 NE28G35   29.69F WCI  23
WAUKESHA       FLURRIES  32  32 100 NE15G25   29.69F WCI  22
MILWAUKEE/TIMM CLOUDY    34  32  93 NE20G30   29.71F WCI  22
RACINE         LGT RAIN  36  33  89 NE22G32   29.68F WCI  25
KENOSHA        LGT RAIN  36  34  92 NE22G31   29.64F WCI  25
FOND DU LAC    FLURRIES  33  29  85 NE17      29.77F WCI  22
SHEBOYGAN      FRZ RAIN  32  31  96 NE25G33   29.75F FOG     WCI  19
WEST BEND      LGT RAIN  32  32 100 NE20G31   29.73F WCI  20
JUNEAU         MIX PCPN  32  31  95 NE15G23   29.70F WCI  22
$$

LSZ147-162-240800-
LAKE SUPERIOR

STATION/POSITION TIME  TEMP    WIND        PRES    WAVE
                       AIR SEA DIR/SP/G            HT/PER
                 (UTC) (F)     (DEG/KT/KT) (MB)    (FT/S)
DEVILS ISLAND    0700   29      40/ 18/ 22 1016.3F
PORT WING        0640   28      20/ 19/ 23 1015.2F
SAXON HARBOR     0700   31      40/ 19/ 22 1013.5
$$

LMZ867-665-643>646-240800-
LAKE MICHIGAN

STATION/POSITION TIME  TEMP    WIND        PRES    WAVE
                       AIR SEA DIR/SP/G            HT/PER
                 (UTC) (F)     (DEG/KT/KT) (MB)    (FT/S)
CHAMBERS ISLAND  0640   32      30/ 15/ 18 1011.5F
NORTHPORT PIER   0640   33      20/  9/ 13 1012.5F
SISTER BAY       0635   33      30/  9/ 13   N/A
KEWAUNEE LAKESHO 0700   33      40/ 16/ 25 1009.8
SHEBOYGAN LAKESH 0700   32      40/ 29/ 33 1008.8F
PORT WASHINGTON  0702   35      50/ 25     1007.8F
MILWAUKEE LAKESH 0700   36      40/ 26/ 29   N/A
KENOSHA   LAKESH 0700   36      40/ 27/ 32 1003.7
$$

TC  - TEMPERATURE IN CELSIUS
VSB - VISIBILITY IN STATUTE MILES
WCI - WIND CHILL INDEX
HX  - HEAT INDEX




USA.gov is the U.S. government's official web portal to all federal, state and local government web resources and services.